[[[{"header":{"parameterUnit":"kt","parameterCategory":2,"dx":1,"dy":1,"la1":30.253999710083008,"la2":30.299108505249023,"lo1":-89.0895004272461,"lo2":-89.04439544677734,"nx":28,"ny":28,"refTime":"2022-10-22T21:00:00:Z","depth":0,"parameterNumber":1,"parameterNumberName":"U-component_of_WINDS"},"data":[-7.4666,-7.4743,-7.4753,-7.4846,-7.487,-7.4935,-7.4961,-7.4997,-7.5027,-7.5107,-7.5154,-7.5172,-7.5205,-7.5265,-7.5317,-7.5323,-7.5343,-7.5366,-7.5369,-7.5261,-7.5246,-7.5233,-7.5213,-7.5371,-7.5372,-7.5478,-7.5479,-7.548,-7.4592,-7.4617,-7.4669,-7.4724,-7.4769,-7.4755,-7.4798,-7.4836,-7.4894,-7.4932,-7.4978,-7.5049,-7.5105,-7.5131,-7.5187,-7.5224,-7.5218,-7.5238,-7.5233,-7.5239,-7.5125,-7.5104,-7.5242,-7.5242,-7.5242,-7.5242,-7.5242,-7.5242,-7.4461,-7.4507,-7.4545,-7.46,-7.4631,-7.4668,-7.4713,-7.4732,-7.4782,-7.484,-7.484,-7.4906,-7.4944,-7.5014,-7.5039,-7.5091,-7.507,-7.5093,-7.5098,-7.5103,-7.5108,-7.4953,-7.5101,-7.5101,-7.5101,-7.51,-7.51,0,-7.4366,-7.437,-7.4418,-7.4471,-7.4511,-7.4552,-7.459,-7.4618,-7.4627,-7.4668,-7.4727,-7.4763,-7.4834,-7.489,-7.4943,-7.4964,-7.4948,-7.4948,-7.4964,-7.4962,-7.4957,-7.4959,-7.4771,-7.4942,-7.494,-7.4939,-7.4939,-7.4938,-7.4232,-7.4284,-7.4326,-7.4359,-7.4381,-7.4434,-7.4467,-7.447,-7.4505,-7.4553,-7.4593,-7.465,-7.4694,-7.4788,-7.4806,-7.4859,-7.4851,-7.4915,-7.4858,-7.4858,-7.4849,-7.4845,-7.485,-7.4924,-7.4926,-7.4927,-7.4929,0,-7.4156,-7.4167,-7.4249,-7.4284,-7.4294,-7.4348,-7.4378,-7.4424,-7.4435,-7.4499,-7.4514,-7.4531,-7.4588,-7.4596,-7.4663,-7.4665,-7.4756,-7.4749,-7.4744,-7.4742,-7.4799,-7.4793,-7.4986,-7.5011,-7.485,-7.4851,-7.4853,0,-7.4044,-7.4111,-7.4123,-7.4169,-7.4245,-7.4244,-7.4319,-7.4335,-7.4365,-7.4415,-7.4399,-7.4447,-7.4448,-7.4497,-7.45,-7.4576,-7.4589,-7.4594,-7.4593,-7.4593,-7.4592,-7.4607,-7.4598,-7.4591,-7.459,-7.4589,-7.4588,0,-7.392,-7.4004,-7.4081,-7.4101,-7.4142,-7.4179,-7.4198,-7.423,-7.4261,-7.4303,-7.4324,-7.4373,-7.4399,-7.4439,-7.444,-7.4401,-7.4534,-7.448,-7.4539,-7.4539,-7.4563,-7.4561,-7.4734,-7.4587,-7.4587,-7.4586,-7.4586,0,-7.3829,-7.3871,-7.3979,-7.4013,-7.4035,-7.4085,-7.4132,-7.4176,-7.4211,-7.4215,-7.4248,-7.4235,-7.4302,-7.4249,-7.4341,-7.4289,-7.4317,-7.4328,-7.4332,-7.4334,-7.4272,-7.4366,-7.4533,-7.4549,-7.4344,-7.4342,-7.434,0,-7.3685,-7.3796,-7.3793,-7.3897,-7.3948,-7.3924,-7.398,-7.401,-7.402,-7.4065,-7.4076,-7.4127,-7.4088,-7.4104,-7.415,-7.4162,-7.423,-7.4153,-7.4218,-7.422,-7.4207,-7.4362,-7.4383,-7.4497,-7.4314,-7.4317,-7.4319,0,-7.3572,-7.3619,-7.3637,-7.3659,-7.3696,-7.3738,-7.3803,-7.3852,-7.3883,-7.3917,-7.397,-7.4043,-7.4016,-7.4042,-7.4036,-7.4082,-7.4184,-7.4046,-7.4047,-7.407,-7.4301,-7.4322,-7.4341,-7.417,-7.4173,-7.4175,-7.4298,0,-7.343,-7.3484,-7.3534,-7.3581,-7.3614,-7.3678,-7.368,-7.3715,-7.3705,-7.3712,-7.379,-7.3813,-7.3861,-7.3884,-7.3874,-7.3978,-7.3961,-7.393,-7.3874,-7.3977,-7.4017,-7.4034,-7.3815,-7.3813,-7.3812,-7.381,0,0,-7.3287,-7.3365,-7.3357,-7.3417,-7.3443,-7.3414,-7.3481,-7.3504,-7.3549,-7.3569,-7.3539,-7.3642,-7.366,-7.3755,-7.3787,-7.3807,-7.3825,-7.3787,-7.3928,-7.3942,-7.3954,-7.3997,-7.4014,-7.3808,-7.3808,-7.3807,-7.3807,0,-7.3234,-7.3254,-7.332,-7.3343,-7.3376,-7.3379,-7.3396,-7.3422,-7.3428,-7.3503,-7.3475,-7.3522,-7.3602,-7.3626,-7.3649,-7.3778,-7.3752,-7.3793,-7.3862,-7.3915,-7.393,-7.3943,-7.3988,-7.4005,-7.3803,-7.3803,-7.3804,0,-7.3122,-7.3141,-7.3172,-7.323,-7.3251,-7.3303,-7.3246,-7.3303,-7.3341,-7.3301,-7.3375,-7.3387,-7.3418,-7.3507,-7.3546,-7.3519,-7.3686,-7.3633,-7.3641,-7.3644,-7.3695,-7.3713,-7.3729,-7.3517,-7.3516,-7.3515,0,0,-7.3075,-7.3124,-7.3142,-7.3218,-7.3234,-7.3237,-7.3264,-7.3254,-7.3282,-7.3293,-7.3306,-7.3335,-7.3382,-7.3412,-7.3455,-7.3552,-7.3557,-7.3597,-7.3611,-7.3622,-7.3631,-7.3685,-7.3703,-7.3511,-7.3511,-7.3511,0,0,-7.3051,-7.3075,-7.3058,-7.3146,-7.3175,-7.3196,-7.3243,-7.3223,-7.3261,-7.3253,-7.3239,-7.3245,-7.3327,-7.3339,-7.3289,-7.3435,-7.338,-7.3392,-7.3423,-7.344,-7.3453,-7.3447,-7.323,0,0,0,0,0,-7.2994,-7.3072,-7.3057,-7.3072,-7.3142,-7.3205,-7.3214,-7.3204,-7.3166,-7.3204,-7.3212,-7.3182,-7.331,-7.3265,-7.328,-7.3334,-7.3463,-7.3471,-7.3479,-7.3542,-7.356,-7.3575,0,0,0,0,0,0,-7.3,-7.3018,-7.3055,-7.308,-7.3095,-7.3202,-7.3135,-7.3135,-7.3161,-7.3155,-7.3181,-7.3183,-7.3175,-7.3257,-7.327,-7.3322,-7.3226,-7.3466,-7.3473,-7.348,-7.3548,-7.3563,-7.3576,0,0,0,0,0,-7.3004,-7.3019,-7.3134,-7.3078,-7.3092,-7.3098,-7.3132,-7.3131,-7.3151,-7.3162,-7.3163,-7.3141,-7.3176,-7.3187,-7.3265,-7.3316,-7.3216,-7.3221,-7.3471,-7.3477,-7.3482,-7.3556,0,0,0,0,0,0,-7.3008,-7.3018,-7.3136,-7.314,-7.3047,-7.3091,-7.3098,-7.3128,-7.3157,-7.3158,-7.3121,-7.3115,-7.3179,-7.3186,-7.3195,-7.3315,-7.3209,-7.3214,-7.3217,-7.3475,-7.348,-7.3484,0,0,0,0,0,0,-7.301,-7.3022,-7.3138,-7.3099,-7.3098,-7.3086,-7.3091,-7.3155,-7.3158,-7.3114,-7.311,-7.3118,-7.3166,-7.3187,-7.3193,-7.3292,-7.3203,-7.3208,-7.3211,-7.3213,-7.3479,-7.3482,0,0,0,0,0,0,-7.3015,-7.3025,-7.3098,-7.3098,-7.3097,-7.3138,-7.3141,-7.3214,-7.3125,-7.3113,-7.3116,-7.3113,-7.3167,-7.3173,-7.3192,-7.3289,-7.3292,-7.3203,-7.3206,-7.3209,-7.321,0,0,0,0,0,0,0,-7.3019,-7.2956,-7.3114,-7.3096,-7.3095,-7.3175,-7.3176,-7.3177,-7.3124,-7.3121,-7.3117,-7.3114,-7.3175,-7.318,-7.3186,-7.3286,0,0,-7.3203,-7.3205,0,0,0,0,0,0,0,0,-7.2952,-7.2955,-7.3114,-7.3115,-7.3116,-7.3176,-7.3176,-7.3177,-7.3123,-7.3121,-7.3118,-7.3116,-7.3176,-7.3181,-7.3185,0,0,0,0,0,0,0,0,0,0,0,0,0,0,0,-7.3114,-7.3115,0,-7.3176,-7.3176,-7.3177,-7.3123,-7.3121,-7.3119,-7.3117,-7.3177,-7.3181,-7.3185,0,0,0,0,0,0,0,0,0,0,0,0,0,0,0,0,0,0,0,0,0,0,0,0,0,0,0,0,0,0,0,0,0,0,0,0,0,0,0,0,0,0,0,0,0,0,0,0,0,0,0,0,0,0,0,0,0,0,0,0,0,0,0,0,0,0,0,0,0]}],[{"header":{"parameterUnit":"kt","parameterCategory":2,"dx":1,"dy":1,"la1":30.253999710083008,"la2":30.299108505249023,"lo1":-89.0895004272461,"lo2":-89.04439544677734,"nx":28,"ny":28,"refTime":"2022-10-22T21:00:00:Z","depth":0,"parameterNumber":2,"parameterNumberName":"V-component_of_WINDS"},"data":[5.0436,5.0386,5.0399,5.0346,5.0348,5.0314,5.0305,5.0294,5.0288,5.0245,5.0223,5.0227,5.0222,5.0195,5.0169,5.017,5.0158,5.0133,5.0139,5.0244,5.0259,5.0274,5.0288,5.0131,5.013,5.0029,5.0028,5.0027,5.0516,5.0518,5.0494,5.0478,5.0457,5.049,5.0478,5.0458,5.0425,5.0416,5.0394,5.0356,5.0326,5.0329,5.0302,5.0276,5.0287,5.0267,5.0269,5.0267,5.038,5.0395,5.0259,5.0259,5.0259,5.0259,5.0259,5.0259,5.0663,5.0632,5.0631,5.0604,5.0599,5.0588,5.0559,5.0567,5.0541,5.0516,5.0532,5.0493,5.0484,5.0454,5.0446,5.0414,5.0437,5.0417,5.0412,5.0406,5.04,5.0547,5.0409,5.041,5.041,5.041,5.0411,0,5.0775,5.0788,5.0765,5.0746,5.0727,5.0712,5.0699,5.0682,5.0708,5.0685,5.0652,5.0634,5.0597,5.0565,5.054,5.0535,5.0561,5.0565,5.0551,5.0543,5.054,5.0541,5.0725,5.0568,5.0569,5.057,5.0571,5.0572,5.0925,5.0887,5.089,5.0872,5.0869,5.0838,5.0822,5.0849,5.083,5.0816,5.0786,5.0755,5.0731,5.0672,5.0676,5.0647,5.0659,5.0598,5.0654,5.065,5.0658,5.066,5.0656,5.0586,5.0584,5.0583,5.0582,0,5.1009,5.1028,5.0972,5.0978,5.0978,5.0936,5.0939,5.0907,5.0916,5.0873,5.0864,5.0877,5.0842,5.0856,5.0816,5.0824,5.0751,5.0764,5.0756,5.0759,5.0706,5.0711,5.0532,5.051,5.0673,5.0671,5.067,0,5.1144,5.1092,5.1124,5.109,5.1033,5.1062,5.1003,5.1006,5.0999,5.0965,5.1,5.0967,5.099,5.0958,5.0969,5.0912,5.0904,5.0906,5.091,5.0903,5.0903,5.089,5.0898,5.0919,5.092,5.0921,5.0921,0,5.1273,5.1228,5.1174,5.1166,5.1165,5.1138,5.1135,5.1128,5.111,5.1089,5.1078,5.105,5.1035,5.1012,5.1027,5.1065,5.0957,5.1012,5.0959,5.0959,5.0933,5.0934,5.0774,5.0922,5.0923,5.0923,5.0923,0,5.1384,5.1367,5.1284,5.1285,5.1272,5.1234,5.1212,5.1183,5.1172,5.1178,5.1161,5.1184,5.1136,5.1189,5.1122,5.1167,5.1149,5.1147,5.1143,5.1139,5.1198,5.1105,5.0951,5.0936,5.1136,5.1138,5.114,0,5.1526,5.1449,5.1473,5.1393,5.1359,5.1403,5.1361,5.1351,5.1355,5.1325,5.1329,5.1293,5.1336,5.1326,5.1291,5.1292,5.1233,5.13,5.1252,5.125,5.1255,5.1114,5.1088,5.0984,5.1163,5.116,5.1158,0,5.1639,5.164,5.1623,5.1616,5.1608,5.1579,5.1531,5.1503,5.1482,5.1464,5.1424,5.1372,5.1403,5.1386,5.1401,5.1363,5.1274,5.14,5.14,5.1377,5.1175,5.1151,5.1133,5.1292,5.1289,5.1287,5.1177,0,5.1804,5.1767,5.1725,5.1706,5.1686,5.1636,5.1654,5.163,5.1649,5.1655,5.1595,5.1585,5.1552,5.1536,5.1551,5.1462,5.1478,5.151,5.1561,5.1469,5.1433,5.1418,5.1615,5.1616,5.1618,5.1619,0,0,5.1935,5.1883,5.191,5.1866,5.185,5.1896,5.184,5.183,5.1805,5.1793,5.1823,5.1748,5.1738,5.1662,5.1634,5.162,5.1605,5.1636,5.1513,5.1501,5.149,5.1451,5.1436,5.1621,5.1621,5.1622,5.1622,0,5.2,5.1996,5.1942,5.1934,5.1922,5.1931,5.1918,5.1913,5.1913,5.1855,5.1889,5.1854,5.1791,5.1777,5.1762,5.1647,5.1672,5.1635,5.1569,5.1526,5.1512,5.15,5.146,5.1445,5.1626,5.1625,5.1625,0,5.2114,5.2113,5.2089,5.2057,5.2048,5.201,5.2071,5.2028,5.1999,5.2045,5.1985,5.1981,5.1962,5.1888,5.1855,5.188,5.1733,5.1781,5.1773,5.1769,5.1728,5.1711,5.1697,5.1888,5.1889,5.189,0,0,5.2167,5.2132,5.2137,5.2072,5.2064,5.2077,5.2058,5.2075,5.206,5.2053,5.2048,5.203,5.1995,5.197,5.1937,5.1852,5.185,5.1813,5.18,5.179,5.1781,5.1737,5.1721,5.1893,5.1894,5.1894,0,0,5.2191,5.2195,5.2218,5.2145,5.2131,5.2129,5.2087,5.2113,5.2086,5.2093,5.2115,5.2111,5.2041,5.2035,5.2078,5.1955,5.2006,5.1995,5.1961,5.1946,5.1934,5.1936,5.2135,0,0,0,0,0,5.2266,5.2196,5.2216,5.2207,5.2164,5.2118,5.2113,5.2132,5.2169,5.2136,5.2136,5.2165,5.2063,5.2102,5.209,5.2041,5.1936,5.1929,5.1921,5.1858,5.1842,5.1828,0,0,0,0,0,0,5.2262,5.2251,5.2218,5.2213,5.2203,5.2121,5.2188,5.2191,5.2173,5.218,5.2164,5.2165,5.2177,5.2109,5.2098,5.2051,5.2138,5.1933,5.1927,5.1921,5.1852,5.1839,5.1827,0,0,0,0,0,5.226,5.225,5.2177,5.2214,5.2206,5.2215,5.2191,5.2194,5.218,5.218,5.2181,5.2196,5.2176,5.2167,5.2103,5.2056,5.2146,5.2142,5.1929,5.1924,5.1919,5.1846,0,0,0,0,0,0,5.2258,5.2251,5.2176,5.2174,5.2242,5.222,5.2217,5.2196,5.2181,5.2182,5.2213,5.2218,5.2173,5.2167,5.2161,5.2057,5.2153,5.2148,5.2146,5.1925,5.1921,5.1918,0,0,0,0,0,0,5.2257,5.2249,5.2175,5.2209,5.2212,5.2224,5.2222,5.2168,5.218,5.2215,5.2219,5.2215,5.2182,5.2167,5.2162,5.2078,5.2157,5.2153,5.215,5.2149,5.1922,5.1919,0,0,0,0,0,0,5.2254,5.2248,5.221,5.2212,5.2214,5.2193,5.2177,5.213,5.2214,5.2215,5.2222,5.2226,5.218,5.2176,5.2163,5.208,5.2078,5.2157,5.2154,5.2153,5.2151,0,0,0,0,0,0,0,5.2252,5.2289,5.2187,5.2213,5.2215,5.2156,5.2155,5.2155,5.2215,5.2218,5.2221,5.2224,5.2181,5.2176,5.2172,5.2082,0,0,5.2158,5.2156,0,0,0,0,0,0,0,0,5.2292,5.229,5.2187,5.2187,5.2187,5.2156,5.2155,5.2155,5.2216,5.2218,5.2221,5.2223,5.2179,5.2176,5.2172,0,0,0,0,0,0,0,0,0,0,0,0,0,0,0,5.2187,5.2187,0,5.2156,5.2155,5.2155,5.2216,5.2218,5.222,5.2222,5.2178,5.2176,5.2172,0,0,0,0,0,0,0,0,0,0,0,0,0,0,0,0,0,0,0,0,0,0,0,0,0,0,0,0,0,0,0,0,0,0,0,0,0,0,0,0,0,0,0,0,0,0,0,0,0,0,0,0,0,0,0,0,0,0,0,0,0,0,0,0,0,0,0,0,0]}]]]